[Date Prev][Date Next][Thread Prev][Thread Next] - [Date Index][Thread Index][Author Index]
2 Line ISS Keps 12-15
- Subject: [sarex] 2 Line ISS Keps 12-15
- From: "Dave Larsen Ph.D." <doc@xxxxxxxxxxx>
- Date: Sun, 15 Dec 2002 03:56:55 -0800
ISS
1 25544U 98067A 02349.14515640 .00075118 00000-0 99681-3 0 4751
2 25544 51.6342 224.5436 0003741 268.3808 229.2350 15.57553402232196
----
Via the sarex mailing list at AMSAT.ORG courtesy of AMSAT-NA.
To unsubscribe, send "unsubscribe sarex" to Majordomo@amsat.org
AMSAT Home